Weather History for Clarion, IA

Change the Weather History Date:

Sunday, March 3, 2013

  Actual Average Record
Temperature  
Mean Temperature 26 °F -  
Max Temperature 32 °F 37 °F 66 °F (1983)
Min Temperature 21 °F 19 °F -16 °F (2014)
Degree Days  
Heating Degree Days 38    
Moisture  
Dew Point 20 °F    
Average Humidity 76    
Maximum Humidity 86    
Minimum Humidity 59    
Precipitation  
Precipitation 0.00 in - - ()
Sea Level Pressure  
Sea Level Pressure 30.00 in    
Wind  
Wind Speed 13 mph (SE)    
Max Wind Speed 24 mph    
Max Gust Speed 31 mph    
Visibility 9 miles    
Events Snow    
Averages and records for this station are not official NWS values.
T = Trace of Precipitation, MM = Missing Value Source: NWS Daily Summary

Daily Weather History Graph

Daily Weather History Graph

Search for Another Location

Airport:

Trip Planner

Search our weather history database for the weather conditions in past years. The results will help you decide how hot, cold, wet, or windy it might be!

Date:

Astronomy

Mar. 03, 2013 Rise Set
Actual Time 6:47 AM CST 6:07 PM CST
Civil Twilight 6:18 AM CST 6:35 PM CST
Nautical Twilight 5:46 AM CST 7:08 PM CST
Astronomical Twilight 5:13 AM CST 7:41 PM CST
Moon No Moon Rise 9:53 AM CST (3/3)
Length of Visible Light 12h 16m
Length of Day
11h 20m
Waning Gibbous, 63% of the Moon is Illuminated
Mar 3
Waning Gibbous
Mar 4
Last Quarter
Mar 11
New
Mar 19
First Quarter
Mar 27
Full

Hourly Weather History & Observations

Time (CST) Temp. Windchill Dew Point Humidity Pressure Visibility Wind Dir Wind Speed Gust Speed Precip Events Conditions
12:15 AM 24.8 °F 16.1 °F 19.4 °F 80% 30.15 in 10.0 mi SSE 8.1 mph - N/A   Overcast
12:35 AM 24.8 °F 16.1 °F 21.2 °F 86% 30.14 in 10.0 mi SSE 8.1 mph - N/A   Overcast
12:55 AM 24.8 °F 15.3 °F 19.4 °F 80% 30.12 in 10.0 mi SSE 9.2 mph - N/A   Overcast
1:15 AM 24.8 °F 14.6 °F 21.2 °F 86% 30.11 in 10.0 mi South 10.4 mph - N/A   Overcast
1:55 AM 24.8 °F 15.3 °F 21.2 °F 86% 30.10 in 10.0 mi SE 9.2 mph - N/A   Overcast
2:15 AM 24.8 °F 16.1 °F 21.2 °F 86% 30.11 in 10.0 mi SE 8.1 mph - N/A   Overcast
2:35 AM 24.8 °F 16.1 °F 19.4 °F 80% 30.11 in 10.0 mi SE 8.1 mph - N/A   Overcast
2:55 AM 24.8 °F 15.3 °F 21.2 °F 86% 30.09 in 10.0 mi SE 9.2 mph - N/A   Overcast
3:15 AM 24.8 °F 14.6 °F 19.4 °F 80% 30.08 in 10.0 mi SE 10.4 mph - N/A   Overcast
3:35 AM 24.8 °F 14.6 °F 19.4 °F 80% 30.08 in 10.0 mi SSE 10.4 mph - N/A   Overcast
3:55 AM 24.8 °F 15.3 °F 19.4 °F 80% 30.08 in 10.0 mi SE 9.2 mph - N/A   Overcast
4:15 AM 24.8 °F 15.3 °F 19.4 °F 80% 30.08 in 10.0 mi SE 9.2 mph - N/A   Overcast
4:35 AM 23.0 °F 13.1 °F 19.4 °F 86% 30.07 in 10.0 mi SE 9.2 mph - N/A   Overcast
4:55 AM 23.0 °F 12.4 °F 19.4 °F 86% 30.07 in 10.0 mi SE 10.4 mph - N/A   Overcast
5:15 AM 23.0 °F 13.1 °F 19.4 °F 86% 30.07 in 10.0 mi SE 9.2 mph - N/A   Overcast
5:35 AM 23.0 °F 13.1 °F 19.4 °F 86% 30.08 in 10.0 mi SE 9.2 mph - N/A   Overcast
6:15 AM 23.0 °F 11.7 °F 17.6 °F 80% 30.06 in 10.0 mi SE 11.5 mph - N/A   Overcast
6:35 AM 23.0 °F 11.7 °F 17.6 °F 80% 30.05 in 10.0 mi SE 11.5 mph - N/A   Partly Cloudy
6:55 AM 21.2 °F 10.9 °F 17.6 °F 86% 30.06 in 10.0 mi SE 9.2 mph - N/A   Partly Cloudy
7:15 AM 23.0 °F 11.7 °F 17.6 °F 80% 30.06 in 9.0 mi SE 11.5 mph - N/A   Mostly Cloudy
7:35 AM 23.0 °F 11.7 °F 17.6 °F 80% 30.06 in 10.0 mi SE 11.5 mph - N/A   Overcast
7:55 AM 23.0 °F 11.7 °F 17.6 °F 80% 30.05 in 10.0 mi SE 11.5 mph - N/A   Mostly Cloudy
8:15 AM 24.8 °F 12.9 °F 17.6 °F 74% 30.05 in 10.0 mi SSE 13.8 mph - N/A   Overcast
8:35 AM 24.8 °F 14.0 °F 19.4 °F 80% 30.05 in 10.0 mi SE 11.5 mph - N/A   Overcast
8:55 AM 24.8 °F 14.0 °F 19.4 °F 80% 30.05 in 10.0 mi SE 11.5 mph 17.3 mph N/A   Overcast
9:15 AM 24.8 °F 12.4 °F 19.4 °F 80% 30.04 in 10.0 mi SE 15.0 mph - N/A   Overcast
9:35 AM 26.6 °F 14.3 °F 19.4 °F 74% 30.04 in 10.0 mi SE 16.1 mph - N/A   Overcast
9:55 AM 26.6 °F 14.3 °F 19.4 °F 74% 30.04 in 10.0 mi SE 16.1 mph 23.0 mph N/A   Overcast
10:15 AM 26.6 °F 13.8 °F 19.4 °F 74% 30.04 in 10.0 mi SE 17.3 mph 23.0 mph N/A   Overcast
10:35 AM 26.6 °F 13.8 °F 19.4 °F 74% 30.04 in 10.0 mi SE 17.3 mph - N/A   Overcast
10:55 AM 28.4 °F 15.1 °F 21.2 °F 74% 30.04 in 10.0 mi SE 20.7 mph 26.5 mph N/A   Overcast
11:15 AM 28.4 °F 16.2 °F 21.2 °F 74% 30.03 in 10.0 mi SE 17.3 mph 25.3 mph N/A   Overcast
11:35 AM 28.4 °F 15.8 °F 21.2 °F 74% 30.03 in 10.0 mi SE 18.4 mph - N/A   Overcast
11:55 AM 28.4 °F 15.8 °F 21.2 °F 74% 30.02 in 10.0 mi SE 18.4 mph - N/A   Mostly Cloudy
12:15 PM 28.4 °F 15.8 °F 21.2 °F 74% 30.01 in 10.0 mi SE 18.4 mph 24.2 mph N/A   Partly Cloudy
12:35 PM 30.2 °F 18.5 °F 21.2 °F 69% 30.00 in 10.0 mi SE 17.3 mph 24.2 mph N/A   Clear
12:55 PM 30.2 °F 17.8 °F 21.2 °F 69% 29.99 in 10.0 mi SE 19.6 mph 26.5 mph N/A   Clear
1:15 PM 30.2 °F 18.5 °F 23.0 °F 75% 29.98 in 10.0 mi SE 17.3 mph 24.2 mph N/A   Clear
1:35 PM 32.0 °F 20.1 °F 23.0 °F 69% 29.97 in 10.0 mi ESE 19.6 mph - N/A   Clear
1:55 PM 32.0 °F 19.8 °F 21.2 °F 64% 29.96 in 10.0 mi SE 20.7 mph 26.5 mph N/A   Clear
2:15 PM 32.0 °F 20.5 °F 21.2 °F 64% 29.95 in 10.0 mi SE 18.4 mph - N/A   Clear
2:35 PM 32.0 °F 20.8 °F 21.2 °F 64% 29.94 in 10.0 mi SE 17.3 mph 25.3 mph N/A   Clear
2:55 PM 32.0 °F 19.8 °F 19.4 °F 60% 29.94 in 10.0 mi SE 20.7 mph 27.6 mph N/A   Clear
3:15 PM 32.0 °F 20.5 °F 19.4 °F 60% 29.94 in 10.0 mi SE 18.4 mph - N/A   Clear
3:35 PM 30.2 °F 18.5 °F 19.4 °F 64% 29.94 in 10.0 mi SE 17.3 mph 25.3 mph N/A   Clear
3:55 PM 30.2 °F 19.3 °F 21.2 °F 69% 29.93 in 10.0 mi SE 15.0 mph 23.0 mph N/A   Clear
4:15 PM 30.2 °F 18.9 °F 23.0 °F 75% 29.93 in 10.0 mi ESE 16.1 mph - N/A   Clear
4:35 PM 30.2 °F 18.5 °F 23.0 °F 75% 29.93 in 10.0 mi SE 17.3 mph - N/A   Clear
4:55 PM 28.4 °F 15.8 °F 23.0 °F 80% 29.92 in 10.0 mi ESE 18.4 mph - N/A   Clear
5:15 PM 28.4 °F 16.6 °F 23.0 °F 80% 29.92 in 10.0 mi ESE 16.1 mph 24.2 mph N/A   Clear
5:35 PM 28.4 °F 17.0 °F 23.0 °F 80% 29.92 in 10.0 mi ESE 15.0 mph 23.0 mph N/A   Clear
5:55 PM 26.6 °F 13.8 °F 21.2 °F 80% 29.92 in 10.0 mi ESE 17.3 mph - N/A   Clear
6:35 PM 26.6 °F 13.1 °F 19.4 °F 74% 29.91 in 10.0 mi ESE 19.6 mph 26.5 mph N/A   Mostly Cloudy
6:55 PM 26.6 °F 13.4 °F 19.4 °F 74% 29.91 in 10.0 mi ESE 18.4 mph 26.5 mph N/A   Overcast
7:15 PM 26.6 °F 13.1 °F 19.4 °F 74% 29.91 in 10.0 mi ESE 19.6 mph 28.8 mph N/A   Overcast
7:35 PM 26.6 °F 13.1 °F 17.6 °F 69% 29.92 in 10.0 mi ESE 19.6 mph 26.5 mph N/A   Overcast
7:55 PM 26.6 °F 13.1 °F 17.6 °F 69% 29.92 in 10.0 mi ESE 19.6 mph - N/A   Overcast
8:15 PM 26.6 °F 13.8 °F 17.6 °F 69% 29.93 in 10.0 mi ESE 17.3 mph 24.2 mph N/A   Overcast
8:35 PM 28.4 °F 15.8 °F 15.8 °F 59% 29.92 in 10.0 mi SE 18.4 mph 26.5 mph N/A   Overcast
8:55 PM 26.6 °F 11.7 °F 17.6 °F 69% 29.92 in 10.0 mi SE 24.2 mph - N/A   Overcast
9:15 PM 26.6 °F 12.0 °F 17.6 °F 69% 29.91 in 10.0 mi ESE 23.0 mph 29.9 mph N/A   Overcast
9:35 PM 26.6 °F 12.7 °F 17.6 °F 69% 29.90 in 10.0 mi ESE 20.7 mph 27.6 mph N/A   Overcast
9:55 PM 26.6 °F 11.7 °F 17.6 °F 69% 29.90 in 10.0 mi ESE 24.2 mph 31.1 mph N/A   Overcast
10:15 PM 26.6 °F 13.4 °F 17.6 °F 69% 29.92 in 10.0 mi SE 18.4 mph 24.2 mph N/A   Overcast
10:35 PM 26.6 °F 13.8 °F 19.4 °F 74% 29.94 in 2.0 mi SE 17.3 mph 25.3 mph N/A Snow Light Snow
10:55 PM 24.8 °F 11.1 °F 21.2 °F 86% 29.93 in 1.0 mi SE 18.4 mph 29.9 mph N/A Snow Light Snow
11:15 PM 24.8 °F 11.5 °F 21.2 °F 86% 29.93 in 0.8 mi SE 17.3 mph 25.3 mph N/A Snow Light Snow
11:35 PM 24.8 °F 11.1 °F 21.2 °F 86% 29.92 in 0.8 mi SE 18.4 mph 27.6 mph N/A Snow Light Snow
11:55 PM 24.8 °F 10.3 °F 21.2 °F 86% 29.91 in 0.8 mi SE 20.7 mph 27.6 mph N/A Snow Light Snow